Time,TemperatureF,DewpointF,PressureIn,WindDirection,WindDirectionDegrees,WindSpeedMPH,WindSpeedGustMPH,Humidity,HourlyPrecipIn,Conditions,Clouds,dailyrainin,SoftwareType,DateUTC
2013-04-09 00:02:00,37.0,34.0,29.29,WSW,252,1.0,-999.0,88,-99.99,,,-99.99,,2013-04-09 06:02:00,
2013-04-09 00:12:00,37.0,34.0,29.29,WSW,252,2.0,-999.0,89,-99.99,,,-99.99,,2013-04-09 06:12:00,
2013-04-09 00:22:00,37.0,34.0,29.29,WSW,252,2.0,-999.0,89,-99.99,,,-99.99,,2013-04-09 06:22:00,
2013-04-09 00:32:00,37.0,34.0,29.29,WSW,252,3.0,-999.0,89,-99.99,,,-99.99,,2013-04-09 06:32:00,
2013-04-09 00:42:00,37.0,34.0,29.29,WSW,252,3.0,-999.0,89,-99.99,,,-99.99,,2013-04-09 06:42:00,
2013-04-09 00:52:00,37.0,34.0,29.28,SSE,163,4.0,-999.0,88,-99.99,,,-99.99,,2013-04-09 06:52:00,
2013-04-09 01:02:00,37.0,34.0,29.28,SE,146,3.0,-999.0,88,-99.99,,,-99.99,,2013-04-09 07:02:00,
2013-04-09 01:12:00,37.0,34.0,29.28,SE,146,3.0,-999.0,88,-99.99,,,-99.99,,2013-04-09 07:12:00,
2013-04-09 01:22:00,37.0,33.0,29.26,ESE,109,5.0,-999.0,86,-99.99,,,-99.99,,2013-04-09 07:22:00,
2013-04-09 01:32:00,37.0,33.0,29.23,East,82,7.0,-999.0,85,-99.99,,,-99.99,,2013-04-09 07:32:00,
2013-04-09 01:42:00,37.0,33.0,29.23,East,82,7.0,-999.0,85,-99.99,,,-99.99,,2013-04-09 07:42:00,
2013-04-09 01:52:00,37.0,32.0,29.22,ENE,75,7.0,-999.0,83,-99.99,,,-99.99,,2013-04-09 07:52:00,
2013-04-09 02:02:00,37.0,32.0,29.21,ENE,74,6.0,-999.0,82,-99.99,,,-99.99,,2013-04-09 08:02:00,
2013-04-09 02:12:00,37.0,32.0,29.21,ENE,74,6.0,-999.0,82,-99.99,,,-99.99,,2013-04-09 08:12:00,
2013-04-09 02:22:00,37.0,31.0,29.20,ENE,75,5.0,-999.0,80,-99.99,,,-99.99,,2013-04-09 08:22:00,
2013-04-09 02:32:00,38.0,33.0,29.21,ENE,77,6.0,-999.0,81,-99.99,,,-99.99,,2013-04-09 08:32:00,
2013-04-09 02:42:00,38.0,33.0,29.21,ENE,77,6.0,-999.0,81,-99.99,,,-99.99,,2013-04-09 08:42:00,
2013-04-09 02:52:00,38.0,33.0,29.20,ENE,72,7.0,-999.0,82,-99.99,,,-99.99,,2013-04-09 08:52:00,
2013-04-09 03:02:00,38.0,33.0,29.19,East,89,8.0,-999.0,82,-99.99,,,-99.99,,2013-04-09 09:02:00,
2013-04-09 03:12:00,38.0,33.0,29.19,East,89,8.0,-999.0,82,-99.99,,,-99.99,,2013-04-09 09:12:00,
2013-04-09 03:22:00,38.0,33.0,29.19,East,93,6.0,-999.0,82,-99.99,,,-99.99,,2013-04-09 09:22:00,
2013-04-09 03:32:00,38.0,34.0,29.20,East,94,6.0,-999.0,84,-99.99,,,-99.99,,2013-04-09 09:32:00,
2013-04-09 03:43:00,38.0,34.0,29.20,East,94,6.0,-999.0,84,-99.99,,,-99.99,,2013-04-09 09:43:00,
2013-04-09 03:52:00,36.0,32.0,29.19,ENE,70,7.0,-999.0,85,-99.99,,,-99.99,,2013-04-09 09:52:00,
2013-04-09 04:03:00,36.0,33.0,29.22,ENE,71,2.0,-999.0,87,-99.99,,,-99.99,,2013-04-09 10:03:00,
2013-04-09 04:12:00,36.0,33.0,29.22,ENE,71,2.0,-999.0,87,-99.99,,,-99.99,,2013-04-09 10:12:00,
2013-04-09 04:23:00,34.0,31.0,29.23,ENE,71,2.0,-999.0,88,-99.99,,,-99.99,,2013-04-09 10:23:00,
2013-04-09 04:32:00,34.0,31.0,29.21,ENE,71,2.0,-999.0,89,-99.99,,,-99.99,,2013-04-09 10:32:00,
2013-04-09 04:42:00,34.0,31.0,29.21,ENE,71,2.0,-999.0,89,-99.99,,,-99.99,,2013-04-09 10:42:00,
2013-04-09 04:52:00,33.0,30.0,29.23,ENE,71,3.0,-999.0,90,-99.99,,,-99.99,,2013-04-09 10:52:00,
2013-04-09 05:02:00,34.0,32.0,29.21,ENE,70,3.0,-999.0,91,-99.99,,,-99.99,,2013-04-09 11:02:00,
2013-04-09 05:12:00,34.0,32.0,29.21,ENE,70,3.0,-999.0,91,-99.99,,,-99.99,,2013-04-09 11:12:00,
2013-04-09 05:22:00,34.0,32.0,29.21,ENE,70,2.0,-999.0,92,-99.99,,,-99.99,,2013-04-09 11:22:00,
2013-04-09 05:32:00,34.0,32.0,29.19,ENE,70,4.0,-999.0,92,-99.99,,,-99.99,,2013-04-09 11:32:00,
2013-04-09 05:42:00,34.0,32.0,29.19,ENE,70,4.0,-999.0,92,-99.99,,,-99.99,,2013-04-09 11:42:00,
2013-04-09 05:51:00,34.0,32.0,29.27,ENE,70,3.0,-999.0,92,-99.99,,,-99.99,,2013-04-09 11:51:00,
2013-04-09 06:02:00,34.0,32.0,29.26,ENE,70,1.0,-999.0,92,-99.99,,,-99.99,,2013-04-09 12:02:00,
2013-04-09 06:12:00,34.0,32.0,29.26,ENE,70,1.0,-999.0,92,-99.99,,,-99.99,,2013-04-09 12:12:00,
2013-04-09 06:22:00,34.0,32.0,29.27,ENE,70,0.0,-999.0,92,-99.99,,,-99.99,,2013-04-09 12:22:00,
2013-04-09 06:32:00,34.0,32.0,29.27,ENE,70,0.0,-999.0,92,-99.99,,,-99.99,,2013-04-09 12:32:00,
2013-04-09 06:42:00,34.0,32.0,29.27,ENE,70,0.0,-999.0,92,-99.99,,,-99.99,,2013-04-09 12:42:00,
2013-04-09 06:52:00,34.0,32.0,29.30,ENE,70,0.0,-999.0,93,-99.99,,,-99.99,,2013-04-09 12:52:00,
2013-04-09 07:02:00,35.0,33.0,29.30,ENE,70,0.0,-999.0,93,-99.99,,,-99.99,,2013-04-09 13:02:00,
2013-04-09 07:12:00,35.0,33.0,29.30,ENE,70,0.0,-999.0,93,-99.99,,,-99.99,,2013-04-09 13:12:00,
2013-04-09 07:22:00,36.0,34.0,29.31,ENE,70,0.0,-999.0,93,-99.99,,,-99.99,,2013-04-09 13:22:00,
2013-04-09 07:32:00,36.0,34.0,29.31,ENE,70,1.0,-999.0,93,-99.99,,,-99.99,,2013-04-09 13:32:00,
2013-04-09 07:42:00,36.0,34.0,29.31,ENE,70,1.0,-999.0,93,-99.99,,,-99.99,,2013-04-09 13:42:00,
2013-04-09 07:52:00,36.0,34.0,29.32,ENE,70,0.0,-999.0,93,-99.99,,,-99.99,,2013-04-09 13:52:00,
2013-04-09 08:02:00,36.0,34.0,29.33,ENE,70,0.0,-999.0,93,-99.99,,,-99.99,,2013-04-09 14:02:00,
2013-04-09 08:12:00,36.0,34.0,29.33,ENE,70,0.0,-999.0,93,-99.99,,,-99.99,,2013-04-09 14:12:00,
2013-04-09 08:21:00,36.0,34.0,29.34,ENE,70,0.0,-999.0,93,-99.99,,,-99.99,,2013-04-09 14:21:00,
2013-04-09 08:32:00,35.0,33.0,29.34,ENE,70,1.0,-999.0,93,-99.99,,,-99.99,,2013-04-09 14:32:00,
2013-04-09 08:42:00,35.0,33.0,29.34,ENE,70,1.0,-999.0,93,-99.99,,,-99.99,,2013-04-09 14:42:00,
2013-04-09 08:51:00,35.0,33.0,29.34,ENE,70,0.0,-999.0,93,-99.99,,,-99.99,,2013-04-09 14:51:00,
2013-04-09 09:02:00,35.0,33.0,29.34,ENE,70,2.0,-999.0,93,-99.99,,,-99.99,,2013-04-09 15:02:00,
2013-04-09 09:12:00,35.0,33.0,29.34,ENE,70,2.0,-999.0,93,-99.99,,,-99.99,,2013-04-09 15:12:00,
2013-04-09 09:22:00,35.0,33.0,29.35,ENE,70,2.0,-999.0,93,-99.99,,,-99.99,,2013-04-09 15:22:00,
2013-04-09 09:33:00,35.0,33.0,29.36,ENE,70,1.0,-999.0,93,-99.99,,,-99.99,,2013-04-09 15:33:00,
2013-04-09 09:42:00,35.0,33.0,29.36,ENE,70,1.0,-999.0,93,-99.99,,,-99.99,,2013-04-09 15:42:00,
2013-04-09 09:52:00,35.0,33.0,29.37,ENE,70,0.0,-999.0,94,-99.99,,,-99.99,,2013-04-09 15:52:00,
2013-04-09 10:03:00,35.0,33.0,29.37,ENE,70,1.0,-999.0,93,-99.99,,,-99.99,,2013-04-09 16:03:00,
2013-04-09 10:12:00,35.0,33.0,29.37,ENE,70,1.0,-999.0,93,-99.99,,,-99.99,,2013-04-09 16:12:00,
2013-04-09 10:22:00,35.0,33.0,29.38,ENE,70,1.0,-999.0,93,-99.99,,,-99.99,,2013-04-09 16:22:00,
2013-04-09 10:33:00,35.0,33.0,29.39,ENE,70,0.0,-999.0,94,-99.99,,,-99.99,,2013-04-09 16:33:00,
2013-04-09 10:42:00,35.0,33.0,29.39,ENE,70,0.0,-999.0,94,-99.99,,,-99.99,,2013-04-09 16:42:00,
2013-04-09 10:52:00,35.0,33.0,29.39,ENE,70,1.0,-999.0,93,-99.99,,,-99.99,,2013-04-09 16:52:00,
2013-04-09 11:02:00,35.0,33.0,29.39,ENE,70,0.0,-999.0,94,-99.99,,,-99.99,,2013-04-09 17:02:00,
2013-04-09 11:12:00,35.0,33.0,29.39,ENE,70,0.0,-999.0,94,-99.99,,,-99.99,,2013-04-09 17:12:00,
2013-04-09 11:22:00,35.0,33.0,29.41,ENE,70,0.0,-999.0,94,-99.99,,,-99.99,,2013-04-09 17:22:00,
2013-04-09 11:32:00,35.0,33.0,29.41,ENE,70,1.0,-999.0,94,-99.99,,,-99.99,,2013-04-09 17:32:00,
2013-04-09 11:42:00,35.0,33.0,29.41,ENE,70,1.0,-999.0,94,-99.99,,,-99.99,,2013-04-09 17:42:00,
2013-04-09 11:53:00,36.0,34.0,29.42,ENE,70,0.0,-999.0,94,-99.99,,,-99.99,,2013-04-09 17:53:00,
2013-04-09 12:02:00,37.0,35.0,29.42,ENE,70,1.0,-999.0,94,-99.99,,,-99.99,,2013-04-09 18:02:00,
2013-04-09 12:12:00,37.0,35.0,29.42,ENE,70,1.0,-999.0,94,-99.99,,,-99.99,,2013-04-09 18:12:00,
2013-04-09 12:22:00,38.0,36.0,29.41,ENE,73,2.0,-999.0,94,-99.99,,,-99.99,,2013-04-09 18:22:00,
2013-04-09 12:32:00,39.0,37.0,29.40,ENE,75,3.0,-999.0,94,-99.99,,,-99.99,,2013-04-09 18:32:00,
2013-04-09 12:42:00,39.0,37.0,29.40,ENE,75,3.0,-999.0,94,-99.99,,,-99.99,,2013-04-09 18:42:00,
2013-04-09 12:53:00,39.0,37.0,29.39,SW,234,6.0,-999.0,93,-99.99,,,-99.99,,2013-04-09 18:53:00,
2013-04-09 13:02:00,39.0,37.0,29.39,SW,234,6.0,-999.0,93,-99.99,,,-99.99,,2013-04-09 19:02:00,
2013-04-09 13:11:00,39.0,37.0,29.39,SW,234,6.0,-999.0,93,-99.99,,,-99.99,,2013-04-09 19:11:00,
2013-04-09 13:22:00,39.0,37.0,29.39,SW,234,6.0,-999.0,93,-99.99,,,-99.99,,2013-04-09 19:22:00,
2013-04-09 13:32:00,40.0,36.0,29.40,WSW,248,11.0,-999.0,85,-99.99,,,-99.99,,2013-04-09 19:32:00,
2013-04-09 13:42:00,40.0,36.0,29.40,WSW,248,11.0,-999.0,85,-99.99,,,-99.99,,2013-04-09 19:42:00,
2013-04-09 14:02:00,40.0,35.0,29.41,WSW,252,10.0,-999.0,83,-99.99,,,-99.99,,2013-04-09 20:02:00,
2013-04-09 14:11:00,40.0,35.0,29.41,WSW,252,10.0,-999.0,83,-99.99,,,-99.99,,2013-04-09 20:11:00,
2013-04-09 14:22:00,39.0,35.0,29.44,West,268,8.0,-999.0,87,-99.99,,,-99.99,,2013-04-09 20:22:00,
2013-04-09 14:32:00,38.0,35.0,29.44,WSW,245,10.0,-999.0,89,-99.99,,,-99.99,,2013-04-09 20:32:00,
2013-04-09 14:42:00,38.0,35.0,29.44,WSW,245,10.0,-999.0,89,-99.99,,,-99.99,,2013-04-09 20:42:00,
2013-04-09 14:52:00,40.0,37.0,29.44,SW,231,8.0,-999.0,89,-99.99,,,-99.99,,2013-04-09 20:52:00,
2013-04-09 15:02:00,39.0,36.0,29.44,WSW,249,8.0,-999.0,88,-99.99,,,-99.99,,2013-04-09 21:02:00,
2013-04-09 15:12:00,39.0,36.0,29.44,WSW,249,8.0,-999.0,88,-99.99,,,-99.99,,2013-04-09 21:12:00,
2013-04-09 15:22:00,39.0,36.0,29.44,WSW,249,8.0,-999.0,88,-99.99,,,-99.99,,2013-04-09 21:22:00,
2013-04-09 15:32:00,40.0,37.0,29.48,SW,221,7.0,-999.0,89,-99.99,,,-99.99,,2013-04-09 21:32:00,
2013-04-09 15:42:00,40.0,37.0,29.48,SW,221,7.0,-999.0,89,-99.99,,,-99.99,,2013-04-09 21:42:00,
2013-04-09 15:53:00,40.0,37.0,29.48,SW,230,8.0,-999.0,88,-99.99,,,-99.99,,2013-04-09 21:53:00,
2013-04-09 16:02:00,41.0,37.0,29.47,SW,224,7.0,-999.0,87,-99.99,,,-99.99,,2013-04-09 22:02:00,
2013-04-09 16:12:00,41.0,37.0,29.47,SW,224,7.0,-999.0,87,-99.99,,,-99.99,,2013-04-09 22:12:00,
2013-04-09 16:22:00,40.0,36.0,29.50,WSW,243,12.0,-999.0,84,-99.99,,,-99.99,,2013-04-09 22:22:00,
2013-04-09 16:32:00,38.0,35.0,29.53,WSW,239,11.0,-999.0,89,-99.99,,,-99.99,,2013-04-09 22:32:00,
2013-04-09 16:42:00,38.0,35.0,29.53,WSW,239,11.0,-999.0,89,-99.99,,,-99.99,,2013-04-09 22:42:00,
2013-04-09 16:53:00,38.0,36.0,29.54,WSW,242,10.0,-999.0,91,-99.99,,,-99.99,,2013-04-09 22:53:00,
2013-04-09 17:02:00,38.0,36.0,29.54,WSW,237,10.0,-999.0,91,-99.99,,,-99.99,,2013-04-09 23:02:00,
2013-04-09 17:12:00,38.0,36.0,29.54,WSW,237,10.0,-999.0,91,-99.99,,,-99.99,,2013-04-09 23:12:00,
2013-04-09 17:22:00,37.0,35.0,29.55,SW,234,9.0,-999.0,91,-99.99,,,-99.99,,2013-04-09 23:22:00,
2013-04-09 17:32:00,37.0,35.0,29.57,WSW,247,9.0,-999.0,91,-99.99,,,-99.99,,2013-04-09 23:32:00,
2013-04-09 17:42:00,37.0,35.0,29.57,WSW,247,9.0,-999.0,91,-99.99,,,-99.99,,2013-04-09 23:42:00,
2013-04-09 17:53:00,38.0,36.0,29.57,WSW,251,7.0,-999.0,91,-99.99,,,-99.99,,2013-04-09 23:53:00,
2013-04-09 18:02:00,38.0,36.0,29.57,WSW,251,7.0,-999.0,91,-99.99,,,-99.99,,2013-04-10 00:02:00,
2013-04-09 18:11:00,38.0,36.0,29.57,WSW,251,7.0,-999.0,91,-99.99,,,-99.99,,2013-04-10 00:11:00,
2013-04-09 18:22:00,38.0,35.0,29.59,WSW,256,4.0,-999.0,90,-99.99,,,-99.99,,2013-04-10 00:22:00,
2013-04-09 18:32:00,39.0,36.0,29.57,WSW,256,4.0,-999.0,89,-99.99,,,-99.99,,2013-04-10 00:32:00,
2013-04-09 18:41:00,39.0,36.0,29.57,WSW,256,4.0,-999.0,89,-99.99,,,-99.99,,2013-04-10 00:41:00,
2013-04-09 18:52:00,39.0,36.0,29.58,West,262,5.0,-999.0,88,-99.99,,,-99.99,,2013-04-10 00:52:00,
2013-04-09 19:01:00,39.0,35.0,29.59,West,263,5.0,-999.0,86,-99.99,,,-99.99,,2013-04-10 01:01:00,
2013-04-09 19:11:00,39.0,35.0,29.59,West,263,4.0,-999.0,84,-99.99,,,-99.99,,2013-04-10 01:11:00,
2013-04-09 19:22:00,39.0,35.0,29.59,West,263,4.0,-999.0,84,-99.99,,,-99.99,,2013-04-10 01:22:00,
2013-04-09 19:31:00,39.0,34.0,29.62,WNW,283,5.0,-999.0,83,-99.99,,,-99.99,,2013-04-10 01:31:00,
2013-04-09 19:42:00,39.0,34.0,29.62,WNW,283,5.0,-999.0,83,-99.99,,,-99.99,,2013-04-10 01:42:00,
2013-04-09 19:52:00,38.0,33.0,29.62,WNW,283,5.0,-999.0,81,-99.99,,,-99.99,,2013-04-10 01:52:00,
2013-04-09 20:01:00,38.0,33.0,29.62,WNW,282,4.0,-999.0,81,-99.99,,,-99.99,,2013-04-10 02:01:00,
2013-04-09 20:12:00,38.0,33.0,29.62,WNW,282,4.0,-999.0,81,-99.99,,,-99.99,,2013-04-10 02:12:00,
2013-04-09 20:22:00,38.0,33.0,29.63,WNW,282,3.0,-999.0,81,-99.99,,,-99.99,,2013-04-10 02:22:00,
2013-04-09 20:32:00,38.0,32.0,29.65,WNW,282,3.0,-999.0,79,-99.99,,,-99.99,,2013-04-10 02:32:00,
2013-04-09 20:42:00,38.0,32.0,29.65,WNW,282,3.0,-999.0,79,-99.99,,,-99.99,,2013-04-10 02:42:00,
2013-04-09 20:52:00,37.0,31.0,29.66,WNW,282,4.0,-999.0,79,-99.99,,,-99.99,,2013-04-10 02:52:00,
2013-04-09 21:02:00,37.0,31.0,29.67,WNW,282,4.0,-999.0,78,-99.99,,,-99.99,,2013-04-10 03:02:00,
2013-04-09 21:12:00,37.0,31.0,29.67,WNW,282,4.0,-999.0,78,-99.99,,,-99.99,,2013-04-10 03:12:00,
2013-04-09 21:22:00,36.0,30.0,29.69,WNW,282,3.0,-999.0,79,-99.99,,,-99.99,,2013-04-10 03:22:00,
2013-04-09 21:32:00,37.0,31.0,29.70,West,265,5.0,-999.0,78,-99.99,,,-99.99,,2013-04-10 03:32:00,
2013-04-09 21:43:00,37.0,31.0,29.70,West,265,5.0,-999.0,78,-99.99,,,-99.99,,2013-04-10 03:43:00,
2013-04-09 21:52:00,37.0,30.0,29.71,West,271,6.0,-999.0,76,-99.99,,,-99.99,,2013-04-10 03:52:00,
2013-04-09 22:02:00,36.0,29.0,29.72,West,269,5.0,-999.0,77,-99.99,,,-99.99,,2013-04-10 04:02:00,
2013-04-09 22:12:00,36.0,29.0,29.72,West,269,5.0,-999.0,77,-99.99,,,-99.99,,2013-04-10 04:12:00,
2013-04-09 22:22:00,35.0,28.0,29.72,West,268,6.0,-999.0,76,-99.99,,,-99.99,,2013-04-10 04:22:00,
2013-04-09 22:33:00,35.0,28.0,29.74,West,272,7.0,-999.0,75,-99.99,,,-99.99,,2013-04-10 04:33:00,
2013-04-09 22:42:00,35.0,28.0,29.74,West,272,7.0,-999.0,75,-99.99,,,-99.99,,2013-04-10 04:42:00,
2013-04-09 22:53:00,34.0,26.0,29.74,WNW,282,9.0,-999.0,72,-99.99,,,-99.99,,2013-04-10 04:53:00,
2013-04-09 23:02:00,34.0,26.0,29.75,West,266,6.0,-999.0,72,-99.99,,,-99.99,,2013-04-10 05:02:00,
2013-04-09 23:12:00,34.0,26.0,29.75,West,266,6.0,-999.0,72,-99.99,,,-99.99,,2013-04-10 05:12:00,
2013-04-09 23:22:00,33.0,25.0,29.75,West,263,5.0,-999.0,72,-99.99,,,-99.99,,2013-04-10 05:22:00,
2013-04-09 23:32:00,33.0,25.0,29.74,West,263,6.0,-999.0,72,-99.99,,,-99.99,,2013-04-10 05:32:00,
2013-04-09 23:42:00,33.0,25.0,29.74,West,263,6.0,-999.0,72,-99.99,,,-99.99,,2013-04-10 05:42:00,
2013-04-09 23:53:00,33.0,25.0,29.75,WSW,256,9.0,-999.0,71,-99.99,,,-99.99,,2013-04-10 05:53:00,